Time,TemperatureF,DewpointF,PressureIn,WindDirection,WindDirectionDegrees,WindSpeedMPH,WindSpeedGustMPH,Humidity,HourlyPrecipIn,Conditions,Clouds,dailyrainin,SoftwareType,DateUTC
2013-11-14 00:02:00,35.9,17.1,30.01,SW,215,1.0,1.0,46,0.00,,,0.00,Wunderground v.1.15,2013-11-14 05:02:00,
2013-11-14 00:07:00,36.0,17.2,30.01,SSE,151,1.0,5.0,46,0.00,,,0.00,Wunderground v.1.15,2013-11-14 05:07:00,
2013-11-14 00:12:00,35.9,17.1,30.01,WSW,241,1.0,1.0,46,0.00,,,0.00,Wunderground v.1.15,2013-11-14 05:12:00,
2013-11-14 00:22:00,35.9,16.6,30.02,SSW,213,1.0,1.0,45,0.00,,,0.00,Wunderground v.1.15,2013-11-14 05:22:00,
2013-11-14 00:27:00,35.9,17.1,30.02,WSW,246,1.0,2.0,46,0.00,,,0.00,Wunderground v.1.15,2013-11-14 05:27:00,
2013-11-14 00:32:00,35.9,16.6,30.01,West,277,2.0,2.0,45,0.00,,,0.00,Wunderground v.1.15,2013-11-14 05:32:00,
2013-11-14 00:37:00,35.9,17.1,30.01,WSW,247,1.0,3.0,46,0.00,,,0.00,Wunderground v.1.15,2013-11-14 05:37:00,
2013-11-14 00:47:00,35.6,16.8,30.01,WNW,298,1.0,1.0,46,0.00,,,0.00,Wunderground v.1.15,2013-11-14 05:47:00,
2013-11-14 00:53:00,35.8,16.0,30.01,SSW,210,1.0,2.0,44,0.00,,,0.00,Wunderground v.1.15,2013-11-14 05:53:00,
2013-11-14 01:02:00,35.8,16.5,30.01,SSE,152,1.0,1.0,45,0.00,,,0.00,Wunderground v.1.15,2013-11-14 06:02:00,
2013-11-14 01:07:00,35.8,16.5,30.01,WSW,237,1.0,1.0,45,0.00,,,0.00,Wunderground v.1.15,2013-11-14 06:07:00,
2013-11-14 01:17:00,35.6,16.3,30.01,NNW,333,0.0,1.0,45,0.00,,,0.00,Wunderground v.1.15,2013-11-14 06:17:00,
2013-11-14 01:22:00,35.5,16.7,30.01,NNW,333,0.0,0.0,46,0.00,,,0.00,Wunderground v.1.15,2013-11-14 06:22:00,
2013-11-14 01:32:00,35.6,16.3,30.01,West,270,1.0,1.0,45,0.00,,,0.00,Wunderground v.1.15,2013-11-14 06:32:00,
2013-11-14 01:37:00,35.8,16.0,30.01,WNW,302,1.0,1.0,44,0.00,,,0.00,Wunderground v.1.15,2013-11-14 06:37:00,
2013-11-14 01:47:00,35.6,16.3,30.00,WSW,256,1.0,1.0,45,0.00,,,0.00,Wunderground v.1.15,2013-11-14 06:47:00,
2013-11-14 01:52:00,35.6,16.3,30.00,SSE,152,1.0,1.0,45,0.00,,,0.00,Wunderground v.1.15,2013-11-14 06:52:00,
2013-11-14 02:02:00,35.8,16.0,30.00,SSW,202,1.0,2.0,44,0.00,,,0.00,Wunderground v.1.15,2013-11-14 07:02:00,
2013-11-14 02:12:00,35.9,15.5,30.00,SW,232,1.0,1.0,43,0.00,,,0.00,Wunderground v.1.15,2013-11-14 07:12:00,
2013-11-14 02:22:00,35.9,15.5,29.99,WSW,251,1.0,2.0,43,0.00,,,0.00,Wunderground v.1.15,2013-11-14 07:22:00,
2013-11-14 02:32:00,35.9,16.1,30.01,North,0,0.0,0.0,44,0.00,,,0.00,Wunderground v.1.15,2013-11-14 07:32:00,
2013-11-14 02:37:00,35.9,16.1,30.01,WNW,282,0.0,0.0,44,0.00,,,0.00,Wunderground v.1.15,2013-11-14 07:37:00,
2013-11-14 02:47:00,36.0,16.2,30.01,North,7,0.0,2.0,44,0.00,,,0.00,Wunderground v.1.15,2013-11-14 07:47:00,
2013-11-14 02:52:00,36.2,15.8,30.01,ESE,116,1.0,2.0,43,0.00,,,0.00,Wunderground v.1.15,2013-11-14 07:52:00,
2013-11-14 03:02:00,36.2,15.8,30.01,West,271,1.0,1.0,43,0.00,,,0.00,Wunderground v.1.15,2013-11-14 08:02:00,
2013-11-14 03:07:00,36.3,15.9,30.01,WNW,296,1.0,2.0,43,0.00,,,0.00,Wunderground v.1.15,2013-11-14 08:07:00,
2013-11-14 03:17:00,36.5,15.6,30.02,NNW,329,1.0,7.0,42,0.00,,,0.00,Wunderground v.1.15,2013-11-14 08:17:00,
2013-11-14 03:22:00,36.5,15.6,30.02,NW,312,0.0,0.0,42,0.00,,,0.00,Wunderground v.1.15,2013-11-14 08:22:00,
2013-11-14 03:32:00,36.5,15.6,30.02,NW,312,0.0,0.0,42,0.00,,,0.00,Wunderground v.1.15,2013-11-14 08:32:00,
2013-11-14 03:37:00,36.3,15.4,30.02,NW,313,0.0,1.0,42,0.00,,,0.00,Wunderground v.1.15,2013-11-14 08:37:00,
2013-11-14 03:47:00,36.3,15.4,30.02,West,272,0.0,5.0,42,0.00,,,0.00,Wunderground v.1.15,2013-11-14 08:47:00,
2013-11-14 03:52:00,36.5,15.6,30.02,WNW,287,0.0,0.0,42,0.00,,,0.00,Wunderground v.1.15,2013-11-14 08:52:00,
2013-11-14 04:02:00,36.5,15.6,30.02,West,271,1.0,1.0,42,0.00,,,0.00,Wunderground v.1.15,2013-11-14 09:02:00,
2013-11-14 04:12:00,36.3,15.9,30.02,NE,45,0.0,1.0,43,0.00,,,0.00,Wunderground v.1.15,2013-11-14 09:12:00,
2013-11-14 04:17:00,36.5,15.6,30.02,SW,233,1.0,1.0,42,0.00,,,0.00,Wunderground v.1.15,2013-11-14 09:17:00,
2013-11-14 04:22:00,36.3,15.9,30.02,NW,323,1.0,1.0,43,0.00,,,0.00,Wunderground v.1.15,2013-11-14 09:22:00,
2013-11-14 04:32:00,36.6,16.2,30.03,SSW,196,1.0,1.0,43,0.00,,,0.00,Wunderground v.1.15,2013-11-14 09:32:00,
2013-11-14 04:37:00,36.3,16.4,30.03,South,188,1.0,1.0,44,0.00,,,0.00,Wunderground v.1.15,2013-11-14 09:37:00,
2013-11-14 04:47:00,36.3,16.4,30.03,WNW,295,1.0,1.0,44,0.00,,,0.00,Wunderground v.1.15,2013-11-14 09:47:00,
2013-11-14 04:52:00,36.3,17.0,30.03,SSE,161,1.0,1.0,45,0.00,,,0.00,Wunderground v.1.15,2013-11-14 09:52:00,
2013-11-14 05:02:00,36.3,17.0,30.03,WNW,294,1.0,2.0,45,0.00,,,0.00,Wunderground v.1.15,2013-11-14 10:02:00,
2013-11-14 05:07:00,36.3,17.0,30.03,West,281,1.0,2.0,45,0.00,,,0.00,Wunderground v.1.15,2013-11-14 10:07:00,
2013-11-14 05:17:00,36.3,17.0,30.03,WNW,299,0.0,1.0,45,0.00,,,0.00,Wunderground v.1.15,2013-11-14 10:17:00,
2013-11-14 05:22:00,36.2,17.4,30.03,WNW,299,0.0,0.0,46,0.00,,,0.00,Wunderground v.1.15,2013-11-14 10:22:00,
2013-11-14 05:32:00,35.8,17.5,30.03,SSW,202,0.0,0.0,47,0.00,,,0.00,Wunderground v.1.15,2013-11-14 10:32:00,
2013-11-14 05:37:00,35.8,18.0,30.03,SSW,208,0.0,0.0,48,0.00,,,0.00,Wunderground v.1.15,2013-11-14 10:37:00,
2013-11-14 05:47:00,35.9,18.1,30.03,NW,319,1.0,1.0,48,0.00,,,0.00,Wunderground v.1.15,2013-11-14 10:47:00,
2013-11-14 05:52:00,36.0,17.7,30.03,SW,234,1.0,2.0,47,0.00,,,0.00,Wunderground v.1.15,2013-11-14 10:52:00,
2013-11-14 06:02:00,36.2,18.4,30.03,SW,220,0.0,0.0,48,0.00,,,0.00,Wunderground v.1.15,2013-11-14 11:02:00,
2013-11-14 06:12:00,35.9,18.6,30.03,SW,220,0.0,0.0,49,0.00,,,0.00,Wunderground v.1.15,2013-11-14 11:12:00,
2013-11-14 06:22:00,36.0,18.7,30.03,WNW,295,0.0,0.0,49,0.00,,,0.00,Wunderground v.1.15,2013-11-14 11:22:00,
2013-11-14 06:32:00,36.0,19.1,30.03,SW,234,0.0,0.0,50,0.00,,,0.00,Wunderground v.1.15,2013-11-14 11:32:00,
2013-11-14 06:37:00,36.2,19.8,30.03,SW,236,0.0,0.0,51,0.00,,,0.00,Wunderground v.1.15,2013-11-14 11:37:00,
2013-11-14 06:47:00,36.0,20.1,30.04,SW,234,0.0,1.0,52,0.00,,,0.00,Wunderground v.1.15,2013-11-14 11:47:00,
2013-11-14 06:52:00,36.0,20.1,30.04,WNW,294,1.0,1.0,52,0.00,,,0.00,Wunderground v.1.15,2013-11-14 11:52:00,
2013-11-14 07:02:00,36.0,20.5,30.04,South,179,1.0,4.0,53,0.00,,,0.00,Wunderground v.1.15,2013-11-14 12:02:00,
2013-11-14 07:12:00,36.3,20.8,30.04,NNW,330,0.0,0.0,53,0.00,,,0.00,Wunderground v.1.15,2013-11-14 12:12:00,
2013-11-14 07:22:00,36.3,21.2,30.04,NW,312,0.0,0.0,54,0.00,,,0.00,Wunderground v.1.15,2013-11-14 12:22:00,
2013-11-14 07:32:00,36.5,21.8,30.05,SSW,209,0.0,0.0,55,0.00,,,0.00,Wunderground v.1.15,2013-11-14 12:32:00,
2013-11-14 07:37:00,36.6,21.9,30.05,WNW,294,0.0,0.0,55,0.00,,,0.00,Wunderground v.1.15,2013-11-14 12:37:00,
2013-11-14 07:47:00,37.0,22.3,30.05,SSW,212,0.0,5.0,55,0.00,,,0.00,Wunderground v.1.15,2013-11-14 12:47:00,
2013-11-14 07:52:00,37.2,22.1,30.05,West,275,1.0,1.0,54,0.00,,,0.00,Wunderground v.1.15,2013-11-14 12:52:00,
2013-11-14 08:02:00,37.3,22.6,30.05,SSW,213,1.0,1.0,55,0.00,,,0.00,Wunderground v.1.15,2013-11-14 13:02:00,
2013-11-14 08:12:00,37.5,23.2,30.05,WNW,298,0.0,0.0,56,0.00,,,0.00,Wunderground v.1.15,2013-11-14 13:12:00,
2013-11-14 08:22:00,37.6,23.3,30.05,NW,304,0.0,0.0,56,0.00,,,0.00,Wunderground v.1.15,2013-11-14 13:22:00,
2013-11-14 08:32:00,37.8,23.5,30.05,WSW,256,1.0,2.0,56,0.00,,,0.00,Wunderground v.1.15,2013-11-14 13:32:00,
2013-11-14 08:37:00,37.9,23.6,30.05,ESE,106,1.0,2.0,56,0.00,,,0.00,Wunderground v.1.15,2013-11-14 13:37:00,
2013-11-14 08:47:00,38.3,24.0,30.05,SW,229,0.0,1.0,56,0.00,,,0.00,Wunderground v.1.15,2013-11-14 13:47:00,
2013-11-14 08:52:00,38.5,24.1,30.05,WNW,282,1.0,3.0,56,0.00,,,0.00,Wunderground v.1.15,2013-11-14 13:52:00,
2013-11-14 09:02:00,38.9,24.5,30.05,WSW,257,0.0,0.0,56,0.00,,,0.00,Wunderground v.1.15,2013-11-14 14:02:00,
2013-11-14 09:07:00,39.1,24.3,30.05,SW,234,0.0,0.0,55,0.00,,,0.00,Wunderground v.1.15,2013-11-14 14:07:00,
2013-11-14 09:17:00,39.2,24.4,30.05,West,261,0.0,0.0,55,0.00,,,0.00,Wunderground v.1.15,2013-11-14 14:17:00,
2013-11-14 09:22:00,39.1,24.3,30.05,WNW,289,0.0,0.0,55,0.00,,,0.00,Wunderground v.1.15,2013-11-14 14:22:00,
2013-11-14 09:32:00,39.1,23.8,30.05,SW,224,1.0,1.0,54,0.00,,,0.00,Wunderground v.1.15,2013-11-14 14:32:00,
2013-11-14 09:37:00,39.1,24.3,30.05,SSW,203,0.0,1.0,55,0.00,,,0.00,Wunderground v.1.15,2013-11-14 14:37:00,
2013-11-14 09:47:00,39.1,24.3,30.05,WNW,298,1.0,2.0,55,0.00,,,0.00,Wunderground v.1.15,2013-11-14 14:47:00,
2013-11-14 09:52:00,39.2,24.4,30.05,SSW,206,1.0,1.0,55,0.00,,,0.00,Wunderground v.1.15,2013-11-14 14:52:00,
2013-11-14 10:02:00,39.5,24.7,30.05,SW,229,0.0,0.0,55,0.00,,,0.00,Wunderground v.1.15,2013-11-14 15:02:00,
2013-11-14 10:07:00,39.5,24.7,30.05,SW,230,1.0,1.0,55,0.00,,,0.00,Wunderground v.1.15,2013-11-14 15:07:00,
2013-11-14 10:17:00,39.9,24.6,30.05,WNW,291,0.0,3.0,54,0.00,,,0.00,Wunderground v.1.15,2013-11-14 15:17:00,
2013-11-14 10:22:00,40.5,25.1,30.05,WSW,244,0.0,0.0,54,0.00,,,0.00,Wunderground v.1.15,2013-11-14 15:22:00,
2013-11-14 10:32:00,41.1,25.7,30.05,West,263,1.0,1.0,54,0.00,,,0.00,Wunderground v.1.15,2013-11-14 15:32:00,
2013-11-14 10:37:00,41.2,25.3,30.05,West,277,1.0,1.0,53,0.00,,,0.01,Wunderground v.1.15,2013-11-14 15:37:00,
2013-11-14 10:47:00,41.6,25.7,30.04,WSW,248,1.0,5.0,53,0.00,,,0.01,Wunderground v.1.15,2013-11-14 15:47:00,
2013-11-14 10:52:00,42.1,26.2,30.04,WNW,291,2.0,2.0,53,0.00,,,0.01,Wunderground v.1.15,2013-11-14 15:52:00,
2013-11-14 11:02:00,42.5,26.1,30.04,NNE,27,1.0,2.0,52,0.00,,,0.01,Wunderground v.1.15,2013-11-14 16:02:00,
2013-11-14 11:12:00,42.8,25.9,30.04,West,278,2.0,2.0,51,0.00,,,0.01,Wunderground v.1.15,2013-11-14 16:12:00,
2013-11-14 11:17:00,42.9,25.5,30.04,NW,306,1.0,5.0,50,0.00,,,0.01,Wunderground v.1.15,2013-11-14 16:17:00,
2013-11-14 11:22:00,42.8,24.9,30.04,SW,226,2.0,2.0,49,0.00,,,0.01,Wunderground v.1.15,2013-11-14 16:22:00,
2013-11-14 11:32:00,43.2,26.3,30.03,WNW,282,1.0,1.0,51,0.00,,,0.01,Wunderground v.1.15,2013-11-14 16:32:00,
2013-11-14 11:37:00,43.9,25.5,30.03,SSW,196,1.0,2.0,48,0.00,,,0.01,Wunderground v.1.15,2013-11-14 16:37:00,
2013-11-14 11:47:00,43.9,24.9,30.02,NNW,346,1.0,1.0,47,0.00,,,0.01,Wunderground v.1.15,2013-11-14 16:47:00,
2013-11-14 11:52:00,44.1,24.6,30.02,West,260,1.0,1.0,46,0.00,,,0.01,Wunderground v.1.15,2013-11-14 16:52:00,
2013-11-14 12:02:00,44.3,23.7,30.01,SW,216,1.0,3.0,44,0.00,,,0.01,Wunderground v.1.15,2013-11-14 17:02:00,
2013-11-14 12:12:00,44.6,24.0,30.01,WSW,258,1.0,1.0,44,0.00,,,0.01,Wunderground v.1.15,2013-11-14 17:12:00,
2013-11-14 12:22:00,45.4,24.2,30.01,WNW,282,0.0,0.0,43,0.00,,,0.01,Wunderground v.1.15,2013-11-14 17:22:00,
2013-11-14 12:32:00,45.7,23.9,30.00,WSW,251,1.0,1.0,42,0.00,,,0.01,Wunderground v.1.15,2013-11-14 17:32:00,
2013-11-14 12:37:00,45.7,23.9,30.00,WSW,243,1.0,1.0,42,0.00,,,0.01,Wunderground v.1.15,2013-11-14 17:37:00,
2013-11-14 12:47:00,46.1,24.3,30.00,SW,223,1.0,1.0,42,0.00,,,0.01,Wunderground v.1.15,2013-11-14 17:47:00,
2013-11-14 12:52:00,46.5,23.4,30.00,West,277,1.0,1.0,40,0.00,,,0.01,Wunderground v.1.15,2013-11-14 17:52:00,
2013-11-14 13:02:00,46.5,22.2,29.99,SE,131,1.0,1.0,38,0.00,,,0.01,Wunderground v.1.15,2013-11-14 18:02:00,
2013-11-14 13:07:00,46.8,22.5,29.99,SSW,209,1.0,1.0,38,0.00,,,0.01,Wunderground v.1.15,2013-11-14 18:07:00,
2013-11-14 13:17:00,46.5,22.2,29.98,SSW,200,1.0,3.0,38,0.00,,,0.01,Wunderground v.1.15,2013-11-14 18:17:00,
2013-11-14 13:23:00,46.8,21.9,29.98,WSW,243,0.0,0.0,37,0.00,,,0.01,Wunderground v.1.15,2013-11-14 18:23:00,
2013-11-14 13:32:00,47.3,22.3,29.98,South,191,0.0,0.0,37,0.00,,,0.01,Wunderground v.1.15,2013-11-14 18:32:00,
2013-11-14 13:37:00,47.4,21.7,29.98,SW,219,0.0,0.0,36,0.00,,,0.01,Wunderground v.1.15,2013-11-14 18:37:00,
2013-11-14 13:47:00,47.6,21.9,29.97,SSW,212,0.0,0.0,36,0.00,,,0.01,Wunderground v.1.15,2013-11-14 18:47:00,
2013-11-14 13:52:00,47.7,20.7,29.97,South,179,0.0,0.0,34,0.00,,,0.01,Wunderground v.1.15,2013-11-14 18:52:00,
2013-11-14 14:02:00,47.9,20.8,29.98,SSW,205,0.0,1.0,34,0.00,,,0.01,Wunderground v.1.15,2013-11-14 19:02:00,
2013-11-14 14:12:00,47.9,20.1,29.98,WSW,258,0.0,0.0,33,0.00,,,0.01,Wunderground v.1.15,2013-11-14 19:12:00,
2013-11-14 14:22:00,48.2,19.7,29.97,SW,227,0.0,1.0,32,0.00,,,0.01,Wunderground v.1.15,2013-11-14 19:22:00,
2013-11-14 14:32:00,48.3,19.0,29.97,West,265,1.0,1.0,31,0.00,,,0.01,Wunderground v.1.15,2013-11-14 19:32:00,
2013-11-14 14:37:00,48.6,18.5,29.97,WSW,257,0.0,1.0,30,0.00,,,0.01,Wunderground v.1.15,2013-11-14 19:37:00,
2013-11-14 14:47:00,48.8,18.7,29.97,WNW,302,0.0,1.0,30,0.00,,,0.01,Wunderground v.1.15,2013-11-14 19:47:00,
2013-11-14 14:52:00,48.8,18.7,29.97,WSW,257,0.0,0.0,30,0.00,,,0.01,Wunderground v.1.15,2013-11-14 19:52:00,
2013-11-14 15:02:00,48.9,18.0,29.97,WSW,256,0.0,0.0,29,0.00,,,0.01,Wunderground v.1.15,2013-11-14 20:02:00,
2013-11-14 15:07:00,49.1,19.0,29.97,WSW,257,0.0,0.0,30,0.00,,,0.01,Wunderground v.1.15,2013-11-14 20:07:00,
2013-11-14 15:17:00,49.2,17.4,29.97,WSW,248,0.0,0.0,28,0.00,,,0.01,Wunderground v.1.15,2013-11-14 20:17:00,
2013-11-14 15:23:00,49.4,17.6,29.97,WSW,254,0.0,0.0,28,0.00,,,0.01,Wunderground v.1.15,2013-11-14 20:23:00,
2013-11-14 15:32:00,49.5,17.7,29.96,South,175,0.0,0.0,28,0.00,,,0.01,Wunderground v.1.15,2013-11-14 20:32:00,
2013-11-14 15:37:00,49.5,17.7,29.96,South,189,0.0,1.0,28,0.00,,,0.01,Wunderground v.1.15,2013-11-14 20:37:00,
2013-11-14 15:47:00,49.6,17.8,29.97,South,179,0.0,0.0,28,0.00,,,0.01,Wunderground v.1.15,2013-11-14 20:47:00,
2013-11-14 15:52:00,49.5,16.9,29.97,South,184,0.0,0.0,27,0.00,,,0.01,Wunderground v.1.15,2013-11-14 20:52:00,
2013-11-14 16:02:00,49.4,16.8,29.96,South,184,0.0,0.0,27,0.00,,,0.01,Wunderground v.1.15,2013-11-14 21:02:00,
2013-11-14 16:12:00,49.2,16.6,29.96,WSW,240,0.0,0.0,27,0.00,,,0.01,Wunderground v.1.15,2013-11-14 21:12:00,
2013-11-14 16:22:00,48.9,16.3,29.96,SW,230,0.0,0.0,27,0.00,,,0.01,Wunderground v.1.15,2013-11-14 21:22:00,
2013-11-14 16:32:00,49.2,14.8,29.96,NW,305,0.0,0.0,25,0.00,,,0.01,Wunderground v.1.15,2013-11-14 21:32:00,
2013-11-14 16:37:00,49.1,15.6,29.96,NW,313,0.0,0.0,26,0.00,,,0.01,Wunderground v.1.15,2013-11-14 21:37:00,
2013-11-14 16:47:00,48.5,15.1,29.96,NW,311,0.0,0.0,26,0.00,,,0.01,Wunderground v.1.15,2013-11-14 21:47:00,
2013-11-14 16:52:00,48.3,15.0,29.96,NW,311,0.0,0.0,26,0.00,,,0.01,Wunderground v.1.15,2013-11-14 21:52:00,
2013-11-14 17:02:00,47.9,14.6,29.96,South,184,0.0,0.0,26,0.00,,,0.01,Wunderground v.1.15,2013-11-14 22:02:00,
2013-11-14 17:07:00,47.9,14.6,29.96,South,186,0.0,0.0,26,0.00,,,0.01,Wunderground v.1.15,2013-11-14 22:07:00,
2013-11-14 17:17:00,48.2,14.0,29.95,South,188,0.0,0.0,25,0.00,,,0.01,Wunderground v.1.15,2013-11-14 22:17:00,
2013-11-14 17:22:00,48.0,14.7,29.95,South,188,0.0,0.0,26,0.00,,,0.01,Wunderground v.1.15,2013-11-14 22:22:00,
2013-11-14 17:32:00,47.9,14.6,29.95,SW,220,0.0,0.0,26,0.00,,,0.01,Wunderground v.1.15,2013-11-14 22:32:00,
2013-11-14 17:38:00,47.9,14.6,29.95,SW,215,0.0,0.0,26,0.00,,,0.01,Wunderground v.1.15,2013-11-14 22:38:00,
2013-11-14 17:47:00,47.4,15.0,29.96,SSW,213,0.0,0.0,27,0.00,,,0.01,Wunderground v.1.15,2013-11-14 22:47:00,
2013-11-14 17:53:00,47.1,14.8,29.96,SSW,213,0.0,0.0,27,0.00,,,0.01,Wunderground v.1.15,2013-11-14 22:53:00,
2013-11-14 18:02:00,47.0,14.7,29.96,SSE,157,0.0,0.0,27,0.00,,,0.01,Wunderground v.1.15,2013-11-14 23:02:00,
2013-11-14 18:07:00,46.8,14.5,29.96,SSE,168,0.0,0.0,27,0.00,,,0.01,Wunderground v.1.15,2013-11-14 23:07:00,
2013-11-14 18:17:00,46.4,15.0,29.96,SSE,168,0.0,0.0,28,0.00,,,0.01,Wunderground v.1.15,2013-11-14 23:17:00,
2013-11-14 18:22:00,46.2,14.0,29.96,South,181,0.0,0.0,27,0.00,,,0.01,Wunderground v.1.15,2013-11-14 23:22:00,
2013-11-14 18:32:00,46.2,14.0,29.95,South,181,0.0,0.0,27,0.00,,,0.01,Wunderground v.1.15,2013-11-14 23:32:00,
2013-11-14 18:37:00,46.1,14.8,29.95,South,181,0.0,0.0,28,0.00,,,0.01,Wunderground v.1.15,2013-11-14 23:37:00,
2013-11-14 18:47:00,46.0,14.7,29.95,South,182,0.0,0.0,28,0.00,,,0.01,Wunderground v.1.15,2013-11-14 23:47:00,
2013-11-14 18:52:00,45.8,14.5,29.95,South,182,0.0,0.0,28,0.00,,,0.01,Wunderground v.1.15,2013-11-14 23:52:00,
2013-11-14 19:02:00,45.7,14.4,29.95,South,182,0.0,0.0,28,0.00,,,0.01,Wunderground v.1.15,2013-11-15 00:02:00,
2013-11-14 19:07:00,45.5,14.2,29.95,South,182,0.0,0.0,28,0.00,,,0.01,Wunderground v.1.15,2013-11-15 00:07:00,
2013-11-14 19:17:00,45.4,14.1,29.95,South,182,0.0,0.0,28,0.00,,,0.01,Wunderground v.1.15,2013-11-15 00:17:00,
2013-11-14 19:22:00,45.2,14.0,29.95,South,182,0.0,0.0,28,0.00,,,0.01,Wunderground v.1.15,2013-11-15 00:22:00,
2013-11-14 19:32:00,45.1,13.9,29.94,South,182,0.0,0.0,28,0.00,,,0.01,Wunderground v.1.15,2013-11-15 00:32:00,
2013-11-14 19:37:00,45.1,13.9,29.94,South,182,0.0,0.0,28,0.00,,,0.01,Wunderground v.1.15,2013-11-15 00:37:00,
2013-11-14 19:47:00,44.9,13.7,29.94,South,182,0.0,0.0,28,0.00,,,0.01,Wunderground v.1.15,2013-11-15 00:47:00,
2013-11-14 19:52:00,44.6,13.5,29.94,South,182,0.0,0.0,28,0.00,,,0.01,Wunderground v.1.15,2013-11-15 00:52:00,
2013-11-14 20:02:00,44.5,13.4,29.94,South,182,0.0,0.0,28,0.00,,,0.01,Wunderground v.1.15,2013-11-15 01:02:00,
2013-11-14 20:08:00,44.6,13.5,29.94,South,182,0.0,0.0,28,0.00,,,0.01,Wunderground v.1.15,2013-11-15 01:08:00,
2013-11-14 20:17:00,44.6,13.5,29.94,South,182,0.0,0.0,28,0.00,,,0.01,Wunderground v.1.15,2013-11-15 01:17:00,
2013-11-14 20:22:00,44.8,14.4,29.94,South,182,0.0,0.0,29,0.00,,,0.01,Wunderground v.1.15,2013-11-15 01:22:00,
2013-11-14 20:32:00,44.8,13.6,29.94,South,184,0.0,0.0,28,0.00,,,0.01,Wunderground v.1.15,2013-11-15 01:32:00,
2013-11-14 20:37:00,44.6,14.3,29.94,South,184,0.0,0.0,29,0.00,,,0.01,Wunderground v.1.15,2013-11-15 01:37:00,
2013-11-14 20:47:00,44.3,14.8,29.94,South,184,0.0,0.0,30,0.00,,,0.01,Wunderground v.1.15,2013-11-15 01:47:00,
2013-11-14 20:52:00,44.3,14.8,29.94,South,184,0.0,0.0,30,0.00,,,0.01,Wunderground v.1.15,2013-11-15 01:52:00,
2013-11-14 21:02:00,44.5,14.9,29.95,SSW,192,0.0,0.0,30,0.00,,,0.01,Wunderground v.1.15,2013-11-15 02:02:00,
2013-11-14 21:12:00,44.2,15.4,29.95,SSW,208,0.0,0.0,31,0.00,,,0.01,Wunderground v.1.15,2013-11-15 02:12:00,
2013-11-14 21:17:00,44.1,15.3,29.96,SSW,209,0.0,0.0,31,0.00,,,0.01,Wunderground v.1.15,2013-11-15 02:17:00,
2013-11-14 21:22:00,43.9,15.2,29.96,WSW,237,0.0,0.0,31,0.00,,,0.01,Wunderground v.1.15,2013-11-15 02:22:00,
2013-11-14 21:32:00,43.8,15.8,29.96,SSW,209,0.0,0.0,32,0.00,,,0.01,Wunderground v.1.15,2013-11-15 02:32:00,
2013-11-14 21:37:00,43.6,15.6,29.96,SSW,209,0.0,0.0,32,0.00,,,0.01,Wunderground v.1.15,2013-11-15 02:37:00,
2013-11-14 21:47:00,43.3,16.1,29.96,SSW,209,0.0,0.0,33,0.00,,,0.01,Wunderground v.1.15,2013-11-15 02:47:00,
2013-11-14 21:52:00,43.3,16.1,29.96,SSW,209,0.0,0.0,33,0.00,,,0.01,Wunderground v.1.15,2013-11-15 02:52:00,
2013-11-14 22:02:00,43.3,16.1,29.97,SSW,209,0.0,0.0,33,0.00,,,0.01,Wunderground v.1.15,2013-11-15 03:02:00,
2013-11-14 22:12:00,43.2,16.7,29.97,SSW,209,0.0,0.0,34,0.00,,,0.01,Wunderground v.1.15,2013-11-15 03:12:00,
2013-11-14 22:17:00,43.1,16.6,29.97,SSW,209,0.0,0.0,34,0.00,,,0.01,Wunderground v.1.15,2013-11-15 03:17:00,
2013-11-14 22:22:00,42.9,16.4,29.97,SSW,209,0.0,0.0,34,0.00,,,0.01,Wunderground v.1.15,2013-11-15 03:22:00,
2013-11-14 22:32:00,42.9,16.4,29.97,SSW,212,0.0,0.0,34,0.00,,,0.01,Wunderground v.1.15,2013-11-15 03:32:00,
2013-11-14 22:37:00,42.8,17.0,29.97,WSW,244,0.0,0.0,35,0.00,,,0.01,Wunderground v.1.15,2013-11-15 03:37:00,
2013-11-14 22:47:00,42.6,16.8,29.98,WSW,241,0.0,0.0,35,0.00,,,0.01,Wunderground v.1.15,2013-11-15 03:47:00,
2013-11-14 22:53:00,42.5,16.7,29.98,WSW,241,0.0,0.0,35,0.00,,,0.01,Wunderground v.1.15,2013-11-15 03:53:00,
2013-11-14 23:02:00,42.3,17.8,29.97,WSW,241,0.0,0.0,37,0.00,,,0.01,Wunderground v.1.15,2013-11-15 04:02:00,
2013-11-14 23:08:00,42.3,17.2,29.97,WSW,241,0.0,0.0,36,0.00,,,0.01,Wunderground v.1.15,2013-11-15 04:08:00,
2013-11-14 23:17:00,42.3,17.2,29.97,WSW,241,0.0,0.0,36,0.00,,,0.01,Wunderground v.1.15,2013-11-15 04:17:00,
2013-11-14 23:23:00,42.3,17.2,29.97,SW,236,0.0,0.0,36,0.00,,,0.01,Wunderground v.1.15,2013-11-15 04:23:00,
2013-11-14 23:32:00,42.1,17.7,29.98,SW,236,0.0,0.0,37,0.00,,,0.01,Wunderground v.1.15,2013-11-15 04:32:00,
2013-11-14 23:38:00,41.9,17.5,29.98,SW,236,0.0,0.0,37,0.00,,,0.01,Wunderground v.1.15,2013-11-15 04:38:00,
2013-11-14 23:47:00,41.5,17.7,29.99,SW,236,0.0,0.0,38,0.00,,,0.01,Wunderground v.1.15,2013-11-15 04:47:00,
2013-11-14 23:53:00,41.3,18.2,29.99,WSW,237,0.0,0.0,39,0.00,,,0.01,Wunderground v.1.15,2013-11-15 04:53:00,